Preview of NWS' New Version of Forecast
This preview is not operational and should not be used for support decisions.

Terminal Aerodrome Forecast (TAF)

Issued by National Weather Service (NWS)

                            
000
FTUS43 KDMX 231720
TAFALO
TAF
KALO 231720Z 2318/2418 13007KT P6SM SKC=